Lahr, Germany

5:57 PM CET on November 13, 2019 (GMT +0100)
Lahr

Weather History for EDTL - September, 2019

Change the Weather History Date:

Wednesday, September 18, 2019

  Actual Average (WUND) Record (WUND)
Temperature  
Mean Temperature 56 °F -  
Max Temperature 66 °F - - (-1)
Min Temperature 46 °F - - (-1)
Degree Days  
Heating Degree Days 9    
Growing Degree Days 6 (Base 50)    
Moisture  
Dew Point 43 °F    
Average Humidity 57    
Maximum Humidity 98    
Minimum Humidity 26    
Precipitation  
Precipitation 0.00 in - - ()
Sea Level Pressure  
Sea Level Pressure 30.22 in    
Wind  
Wind Speed 8 mph ()    
Max Wind Speed 18 mph    
Max Gust Speed -    
Visibility 14.1 miles    
Events Fog    
Averages and records for this station are not official NWS values.
T = Trace of Precipitation, MM = Missing Value Source: Averaged Metar Reports

Daily Weather History Graph

Daily Weather History Graph

Search for Another Location

Airport or City:

Astronomy

Sep. 18, 2019 Rise Set
Actual Time 7:09 AM CEST 7:35 PM CEST
Civil Twilight 6:37 AM CEST 8:07 PM CEST
Nautical Twilight 6:00 AM CEST 8:44 PM CEST
Astronomical Twilight 5:21 AM CEST 9:22 PM CEST
Moon 9:43 PM CEST (9/18) 11:12 AM CEST (9/18)
Length of Visible Light 13h 29m
Length of Day
12h 26m
Waning Gibbous, 84% of the Moon is Illuminated
Sep 18
Waning Gibbous
Sep 22
Last Quarter
Sep 28
New
Oct 5
First Quarter
Oct 13
Full

Hourly Weather History & Observations

Time (CEST) Temp. Windchill Dew Point Humidity Pressure Visibility Wind Dir Wind Speed Gust Speed Precip Events Conditions
12:00 AM 53 °F - 47 °F 73% 30.19 in 28 mi NE 6.7 mph - -  
1:00 AM 51 °F - 48 °F 85% 30.20 in 18 mi NNE 4.5 mph - -  
3:00 AM 48 °F - 45 °F 84% 30.22 in 18 mi North 4.5 mph - -  
4:00 AM 47 °F - 47 °F 98% 30.23 in 1 mi NE 2.2 mph - - Fog Fog
7:20 AM 46.4 °F 42.9 °F 42.8 °F 87% 30.21 in - North 6.9 mph - N/A   Clear
7:50 AM 48.2 °F - 44.6 °F 87% 30.21 in - NNE 4.6 mph - N/A   Clear
8:20 AM 48.2 °F - 44.6 °F 87% 30.21 in - NNE 6.9 mph - N/A   Clear
8:50 AM 50.0 °F - 46.4 °F 87% 30.24 in - NNE 5.8 mph - N/A   Clear
9:00 AM 51 °F - 45 °F 74% 30.25 in 19 mi NE 4.5 mph - -  
9:20 AM 51.8 °F - 46.4 °F 82% 30.24 in - NE 6.9 mph - N/A   Clear
9:50 AM 53.6 °F - 46.4 °F 77% 30.24 in - NNE 6.9 mph - N/A   Clear
10:20 AM 57.2 °F - 46.4 °F 67% 30.24 in - NNE 5.8 mph - N/A   Clear
10:50 AM 59.0 °F - 44.6 °F 59% 30.24 in - North 6.9 mph - N/A   Clear
11:20 AM 59.0 °F - 44.6 °F 59% 30.24 in - North 10.4 mph - N/A   Clear
11:50 AM 62.6 °F - 46.4 °F 55% 30.24 in - NNE 12.7 mph - N/A   Clear
12:00 PM 61 °F - 45 °F 44% 30.24 in 19 mi North 13.4 mph - -  
12:20 PM 62.6 °F - 44.6 °F 52% 30.24 in - North 13.8 mph - N/A   Clear
12:50 PM 62.6 °F - 44.6 °F 52% 30.21 in - North 12.7 mph - N/A   Clear
1:00 PM 63 °F - 44 °F 39% 30.22 in 14 mi North 15.7 mph - -  
1:20 PM 64.4 °F - 44.6 °F 49% 30.21 in - North 11.5 mph - N/A   Clear
1:50 PM 66.2 °F - 44.6 °F 46% 30.21 in - North 13.8 mph - N/A   Clear
2:20 PM 64.4 °F - 41.0 °F 42% 30.21 in - North 16.1 mph - N/A   Clear
2:50 PM 66.2 °F - 39.2 °F 37% 30.21 in - North 16.1 mph - N/A   Clear
3:00 PM 65 °F - 41 °F 29% 30.20 in 11 mi North 17.9 mph - -  
3:20 PM 66.2 °F - 39.2 °F 37% 30.21 in - North 17.3 mph - N/A   Clear
3:50 PM 66.2 °F - 39.2 °F 37% 30.21 in - North 16.1 mph - N/A   Clear
4:00 PM 64 °F - 40 °F 30% 30.20 in 25 mi North 15.7 mph - -  
4:20 PM 66.2 °F - 39.2 °F 37% 30.21 in - North 15.0 mph - N/A   Clear
4:50 PM 66.2 °F - 39.2 °F 37% 30.18 in - North 16.1 mph - N/A   Clear
5:20 PM 66.2 °F - 39.2 °F 37% 30.18 in - North 16.1 mph - N/A   Clear
5:50 PM 66.2 °F - 37.4 °F 35% 30.18 in - North 17.3 mph - N/A   Clear
6:00 PM 65 °F - 38 °F 26% 30.20 in 13 mi NNE 17.9 mph - -  
6:20 PM 64.4 °F - 39.2 °F 40% 30.18 in - North 13.8 mph - N/A   Clear
6:50 PM 62.6 °F - 39.2 °F 42% 30.18 in - North 13.8 mph - N/A   Clear
7:20 PM 60.8 °F - 41.0 °F 48% 30.21 in - NNE 12.7 mph - N/A   Clear
7:50 PM 59.0 °F - 41.0 °F 51% 30.21 in - NNE 10.4 mph - N/A   Clear
9:00 PM 53 °F - 42 °F 56% 30.26 in 44 mi NNE 6.7 mph - -  
9:50 PM 53.6 °F - 41.0 °F 62% 30.24 in - NE 5.8 mph - N/A   Clear
10:00 PM 52 °F - 42 °F 60% 30.27 in 37 mi NE 6.7 mph - -  
10:20 PM 53.6 °F - 41.0 °F 62% 30.24 in - NE 8.1 mph - N/A   Clear
10:50 PM 51.8 °F - 41.0 °F 67% 30.27 in - NNE 6.9 mph - N/A   Clear
11:20 PM 51.8 °F - 41.0 °F 67% 30.27 in - NE 4.6 mph - N/A   Clear
11:50 PM 48.2 °F - 41.0 °F 76% 30.27 in - North 5.8 mph - N/A   Clear